Starlink 31334

operational
NORAD ID: 59157 Int'l Des: 2024-044 Owner: SPXS Country: US Constellation: starlink
LEOCIRCULAR

About Starlink 31334

Description loading...

Live Position

Loading 3D Globe...

Upcoming Passes

Altitude History

Altitude vs Time

uPlot chart will show altitude changes over time

Two-Line Element Set

1 59157U 24044F 25257.41238417 -.00001440 00000-0 -45217-4 0 9996
2 59157 43.0035 25.3590 0001054 272.3780 87.6950 15.25907588 86578
Epoch: Sep 14, 2025 • Age: 25 hours

Current Status

Altitude 487.8 km
Velocity 7.62 km/s
Sub-Earth Point -0.58°S, 141.27°W
Launch Date Mar 4, 2024
Age 1.5 years
Type internet

Technical Details

Classification Payload
Mass 730.00 kg
Dry Mass 700.00 kg
Total Mass 730.00 kg
Length 0.30 m
Diameter 4.10 m
Span 29.00 m
Shape Box + pan
Manufacturer SPXS
Bus Type Starlink V2M
Phase Status In Orbit
Owner/State SPXS/US

Large Constellations

Loading constellations...